Burlington, NC

11:42 PM EST on November 18, 2017 (GMT -0500)
Burlington-Alamance Regional

Weather History for KBUY - November, 2013

Change the Weather History Date:

Thursday, November 21, 2013

  Actual Average Record
Temperature  
Mean Temperature 48 °F -  
Max Temperature 57 °F 59 °F 76 °F (1953)
Min Temperature 39 °F 35 °F 21 °F (1969)
Degree Days  
Heating Degree Days 17    
Moisture  
Dew Point 37 °F    
Average Humidity 63    
Maximum Humidity 73    
Minimum Humidity 51    
Precipitation  
Precipitation 0.00 in - - ()
Sea Level Pressure  
Sea Level Pressure 30.45 in    
Wind  
Wind Speed 6 mph (NNE)    
Max Wind Speed 12 mph    
Max Gust Speed -    
Visibility 10 miles    
Events      
Averages and records for this station are not official NWS values.
T = Trace of Precipitation, MM = Missing Value Source: NWS Daily Summary

Daily Weather History Graph

Daily Weather History Graph

Search for Another Location

Airport or City:

Trip Planner

Search our weather history database for the weather conditions in past years. The results will help you decide how hot, cold, wet, or windy it might be!

Date:

Astronomy

Nov. 21, 2013 Rise Set
Actual Time 7:00 AM EST 5:06 PM EST
Civil Twilight 6:33 AM EST 5:34 PM EST
Nautical Twilight 6:01 AM EST 6:05 PM EST
Astronomical Twilight 5:31 AM EST 6:36 PM EST
Moon 8:40 PM EST (11/21) 10:06 AM EST (11/21)
Length of Visible Light 11h 01m
Length of Day
10h 05m
Waning Gibbous, 85% of the Moon is Illuminated
Nov 21
Waning Gibbous
Nov 25
Last Quarter
Dec 2
New
Dec 9
First Quarter
Dec 17
Full

Hourly Weather History & Observations

Time (EST) Temp. Windchill Dew Point Humidity Pressure Visibility Wind Dir Wind Speed Gust Speed Precip Events Conditions
12:54 AM 42.1 °F 36.6 °F 33.1 °F 70% 30.46 in 10.0 mi North 9.2 mph - N/A   Overcast
1:54 AM 41.0 °F 37.1 °F 32.0 °F 70% 30.48 in 10.0 mi North 5.8 mph - N/A   Overcast
2:54 AM 41.0 °F 36.4 °F 33.1 °F 73% 30.48 in 10.0 mi North 6.9 mph - N/A   Overcast
3:54 AM 42.1 °F 36.6 °F 33.1 °F 70% 30.48 in 10.0 mi NNE 9.2 mph - N/A   Overcast
4:54 AM 41.0 °F - 33.1 °F 73% 30.48 in 10.0 mi North - - N/A   Overcast
5:54 AM 39.9 °F 32.9 °F 32.0 °F 73% 30.46 in 10.0 mi NE 11.5 mph - N/A   Mostly Cloudy
6:54 AM 42.1 °F 38.4 °F 33.1 °F 70% 30.49 in 10.0 mi North 5.8 mph - N/A   Overcast
7:54 AM 42.1 °F 38.4 °F 33.1 °F 70% 30.51 in 10.0 mi North 5.8 mph - N/A   Overcast
8:54 AM 44.1 °F 39.0 °F 33.1 °F 65% 30.51 in 10.0 mi North 9.2 mph - N/A   Mostly Cloudy
9:54 AM 46.9 °F - 34.0 °F 61% 30.51 in 10.0 mi North 5.8 mph - N/A   Mostly Cloudy
10:54 AM 51.1 °F - 36.0 °F 56% 30.50 in 10.0 mi North 10.4 mph - N/A   Scattered Clouds
11:29 AM 51.1 °F - 36.0 °F 56% 30.48 in 10.0 mi North 8.1 mph - N/A   Overcast
11:38 AM 52.0 °F - 37.0 °F 57% 30.47 in 10.0 mi North 6.9 mph - N/A   Overcast
11:54 AM 53.1 °F - 37.0 °F 55% 30.47 in 10.0 mi NNW 4.6 mph - N/A   Mostly Cloudy
12:54 PM 55.0 °F - 37.9 °F 53% 30.45 in 10.0 mi Variable 5.8 mph - N/A   Mostly Cloudy
1:54 PM 55.9 °F - 39.0 °F 53% 30.41 in 10.0 mi Variable 3.5 mph - N/A   Overcast
2:54 PM 57.9 °F - 39.9 °F 51% 30.40 in 10.0 mi NE 3.5 mph - N/A   Scattered Clouds
3:54 PM 57.0 °F - 39.9 °F 53% 30.41 in 10.0 mi NNE 6.9 mph - N/A   Overcast
4:54 PM 54.0 °F - 39.0 °F 57% 30.41 in 10.0 mi NE 6.9 mph - N/A   Overcast
5:54 PM 52.0 °F - 39.0 °F 61% 30.41 in 10.0 mi ENE 4.6 mph - N/A   Overcast
6:54 PM 52.0 °F - 39.0 °F 61% 30.42 in 10.0 mi Calm Calm - N/A   Overcast
7:54 PM 52.0 °F - 39.0 °F 61% 30.42 in 10.0 mi Calm Calm - N/A   Overcast
8:54 PM 51.1 °F - 39.0 °F 63% 30.41 in 10.0 mi NNE 3.5 mph - N/A   Overcast
9:54 PM 50.0 °F - 39.9 °F 68% 30.42 in 10.0 mi Calm Calm - N/A   Overcast
10:39 PM 51.1 °F - 39.9 °F 66% 30.41 in 10.0 mi Calm Calm - N/A   Overcast
10:54 PM 51.1 °F - 39.9 °F 66% 30.41 in 10.0 mi Calm Calm - N/A   Overcast
11:45 PM 51.1 °F - 39.9 °F 66% 30.40 in 10.0 mi Calm Calm - N/A   Overcast
11:54 PM 50.0 °F - 39.9 °F 68% 30.40 in 10.0 mi Calm Calm - N/A   Overcast